Weather History for Hereford, TX

Change the Weather History Date:

Monday, August 25, 2014

  Actual Average (KAMA) Record (KAMA)
Temperature  
Mean Temperature 78 °F 76 °F  
Max Temperature 93 °F 89 °F 102 °F (1936)
Min Temperature 64 °F 63 °F 49 °F (1928)
Degree Days  
Heating Degree Days 0 0  
Month to date heating degree days 0  
Since 1 June heating degree days 7  
Since 1 July heating degree days 0  
Cooling Degree Days 14 11  
Month to date cooling degree days 305  
Year to date cooling degree days 1130  
Since 1 June cooling degree days 1005  
Growing Degree Days 28 (Base 50)    
Moisture  
Dew Point 61 °F    
Average Humidity 61    
Maximum Humidity 91    
Minimum Humidity 31    
Precipitation  
Precipitation 0.00 in 0.08 in 0.92 in (1906)
Month to date precipitation 2.45  
Year to date precipitation 14.81  
Snow  
Snow 0.00 in 0.00 in 0.00 in ()
Month to date snowfall 0.0  
Since 1 June snowfall 0.0  
Since 1 July snowfall 0.0  
Snow Depth -    
Sea Level Pressure  
Sea Level Pressure 30.07 in    
Wind  
Wind Speed 10 mph (South)    
Max Wind Speed 18 mph    
Max Gust Speed 26 mph    
Visibility 10 miles    
Events      
T = Trace of Precipitation, MM = Missing Value Source: NWS Daily Summary

Daily Weather History Graph

Daily Weather History Graph

Search for Another Location

Airport:

Trip Planner

Search our weather history database for the weather conditions in past years. The results will help you decide how hot, cold, wet, or windy it might be!

Date:

Astronomy

Aug. 25, 2014 Rise Set
Actual Time 7:17 AM CDT 8:25 PM CDT
Civil Twilight 6:50 AM CDT 8:51 PM CDT
Nautical Twilight 6:19 AM CDT 9:22 PM CDT
Astronomical Twilight 5:47 AM CDT 9:54 PM CDT
Moon 7:22 AM CDT 8:19 PM CDT
Length of Visible Light 14h 00m
Length of Day
13h 08m
New Moon, 0% of the Moon is Illuminated
Aug 25
New Moon
Sep 2
First Quarter
Sep 8
Full
Sep 15
Last Quarter
Sep 24
New

Hourly Weather History & Observations

Time (CDT) Temp. Heat Index Dew Point Humidity Pressure Visibility Wind Dir Wind Speed Gust Speed Precip Events Conditions
12:15 AM 73.4 °F - 62.1 °F 68% 30.04 in 10.0 mi SSE 12.7 mph 19.6 mph N/A   Clear
12:35 AM 73.0 °F - 62.2 °F 69% 30.04 in 10.0 mi SSE 12.7 mph - N/A   Clear
12:55 AM 72.3 °F - 62.6 °F 71% 30.04 in 10.0 mi SSE 12.7 mph 18.4 mph N/A   Clear
1:15 AM 71.6 °F - 62.6 °F 73% 30.05 in 10.0 mi SSE 11.5 mph - N/A   Clear
1:35 AM 71.1 °F - 62.6 °F 75% 30.04 in 10.0 mi SSE 11.5 mph 16.1 mph N/A   Clear
2:15 AM 70.2 °F - 62.6 °F 77% 30.04 in 10.0 mi South 9.2 mph - N/A   Clear
2:35 AM 69.3 °F - 62.6 °F 79% 30.04 in 10.0 mi South 6.9 mph - N/A   Clear
2:55 AM 68.5 °F - 62.6 °F 81% 30.04 in 10.0 mi SSE 8.1 mph - N/A   Clear
3:15 AM 68.7 °F - 62.6 °F 81% 30.04 in 10.0 mi South 6.9 mph - N/A   Clear
3:35 AM 68.9 °F - 62.6 °F 80% 30.04 in 10.0 mi SSW 6.9 mph - N/A   Clear
3:55 AM 68.7 °F - 62.6 °F 81% 30.04 in 10.0 mi South 6.9 mph - N/A   Clear
4:15 AM 67.6 °F - 62.6 °F 84% 30.04 in 10.0 mi South 5.8 mph - N/A   Clear
4:35 AM 67.6 °F - 62.6 °F 84% 30.04 in 10.0 mi South 6.9 mph - N/A   Clear
4:55 AM 67.1 °F - 62.6 °F 85% 30.05 in 10.0 mi South 5.8 mph - N/A   Clear
5:15 AM 67.1 °F - 62.6 °F 85% 30.04 in 10.0 mi South 5.8 mph - N/A   Clear
5:35 AM 66.2 °F - 62.2 °F 87% 30.04 in 10.0 mi SSW 6.9 mph - N/A   Clear
5:55 AM 67.3 °F - 62.6 °F 85% 30.04 in 10.0 mi SSW 6.9 mph - N/A   Clear
6:15 AM 66.9 °F - 62.6 °F 86% 30.04 in 10.0 mi SSW 5.8 mph - N/A   Clear
6:35 AM 65.1 °F - 62.1 °F 90% 30.04 in 10.0 mi South 6.9 mph - N/A   Clear
6:55 AM 64.9 °F - 62.1 °F 90% 30.05 in 10.0 mi South 6.9 mph - N/A   Clear
7:15 AM 64.2 °F - 61.5 °F 91% 30.05 in 10.0 mi Calm Calm - N/A   Clear
7:35 AM 64.8 °F - 61.9 °F 90% 30.06 in 10.0 mi WSW 3.5 mph - N/A   Clear
7:55 AM 65.7 °F - 61.9 °F 88% 30.07 in 10.0 mi SW 3.5 mph - N/A   Clear
8:15 AM 67.3 °F - 63.1 °F 87% 30.07 in 10.0 mi North - - N/A   Clear
8:35 AM 68.7 °F - 63.1 °F 82% 30.08 in 10.0 mi North - - N/A   Clear
8:55 AM 70.7 °F - 63.7 °F 78% 30.08 in 10.0 mi Calm Calm - N/A   Clear
9:35 AM 75.4 °F - 63.9 °F 67% 30.09 in 10.0 mi South 6.9 mph - N/A   Clear
9:55 AM 78.6 °F - 63.9 °F 60% 30.09 in 10.0 mi South 10.4 mph - N/A   Clear
10:15 AM 78.6 °F - 62.2 °F 57% 30.11 in 10.0 mi South 12.7 mph 16.1 mph N/A   Clear
10:35 AM 81.1 °F 82.3 °F 62.6 °F 53% 30.12 in 10.0 mi SSE 10.4 mph - N/A   Scattered Clouds
10:55 AM 80.8 °F 82.1 °F 63.1 °F 55% 30.13 in 10.0 mi SE 10.4 mph - N/A   Mostly Cloudy
11:15 AM 82.4 °F 83.5 °F 63.1 °F 52% 30.13 in 10.0 mi SSE 16.1 mph 19.6 mph N/A   Scattered Clouds
11:35 AM 83.5 °F 84.5 °F 63.0 °F 50% 30.12 in 10.0 mi SSE 12.7 mph 18.4 mph N/A   Clear
11:55 AM 84.0 °F 85.4 °F 63.9 °F 51% 30.12 in 10.0 mi SSE 12.7 mph 17.3 mph N/A   Clear
12:15 PM 85.3 °F 86.4 °F 63.5 °F 48% 30.11 in 10.0 mi South 15.0 mph 20.7 mph N/A   Clear
12:35 PM 86.5 °F 87.6 °F 63.3 °F 46% 30.11 in 10.0 mi South 15.0 mph 20.7 mph N/A   Clear
12:55 PM 87.8 °F 88.5 °F 62.6 °F 43% 30.10 in 10.0 mi South 13.8 mph 20.7 mph N/A   Clear
1:15 PM 89.1 °F 89.6 °F 62.8 °F 41% 30.09 in 10.0 mi SSE 13.8 mph 20.7 mph N/A   Clear
1:35 PM 89.6 °F 89.8 °F 61.5 °F 39% 30.09 in 10.0 mi South 12.7 mph 19.6 mph N/A   Clear
1:55 PM 90.5 °F 90.4 °F 61.2 °F 37% 30.08 in 10.0 mi South 15.0 mph - N/A   Clear
2:15 PM 91.0 °F 90.9 °F 61.0 °F 36% 30.07 in 10.0 mi South 11.5 mph - N/A   Clear
2:35 PM 91.8 °F 91.5 °F 60.4 °F 35% 30.06 in 10.0 mi SSE 11.5 mph 21.9 mph N/A   Clear
2:55 PM 92.3 °F 91.3 °F 58.1 °F 32% 30.06 in 10.0 mi SSE 13.8 mph 26.5 mph N/A   Clear
3:15 PM 93.0 °F 92.0 °F 58.1 °F 31% 30.04 in 10.0 mi SSE 16.1 mph 20.7 mph N/A   Clear
3:35 PM 91.2 °F 90.2 °F 58.5 °F 33% 30.04 in 10.0 mi South 15.0 mph 23.0 mph N/A   Clear
3:55 PM 88.0 °F 86.5 °F 56.5 °F 34% 30.05 in 10.0 mi South 17.3 mph 24.2 mph N/A   Clear
4:15 PM 86.0 °F 85.9 °F 60.3 °F 42% 30.07 in 10.0 mi SSW 15.0 mph 18.4 mph N/A   Clear
4:35 PM 85.1 °F 85.2 °F 60.8 °F 44% 30.05 in 10.0 mi SSW 11.5 mph - N/A   Clear
4:55 PM 84.7 °F 85.2 °F 61.7 °F 46% 30.04 in 10.0 mi SSW 12.7 mph 18.4 mph N/A   Clear
5:15 PM 85.3 °F 85.9 °F 62.2 °F 46% 30.02 in 10.0 mi South 10.4 mph - N/A   Clear
5:35 PM 87.3 °F 87.5 °F 61.9 °F 42% 30.01 in 10.0 mi South 12.7 mph 16.1 mph N/A   Clear
5:55 PM 90.3 °F 89.3 °F 58.1 °F 34% 30.01 in 10.0 mi South 17.3 mph 23.0 mph N/A   Clear
6:15 PM 90.5 °F 89.5 °F 58.3 °F 34% 30.03 in 10.0 mi South 18.4 mph 21.9 mph N/A   Clear
6:35 PM 90.1 °F 89.1 °F 57.9 °F 34% 30.04 in 10.0 mi South 17.3 mph 23.0 mph N/A   Clear
6:55 PM 88.2 °F 88.1 °F 61.0 °F 40% 30.05 in 10.0 mi SSW 16.1 mph 21.9 mph N/A   Clear
7:15 PM 85.5 °F 85.2 °F 60.1 °F 42% 30.05 in 10.0 mi SSW 16.1 mph 21.9 mph N/A   Clear
7:35 PM 83.5 °F 83.4 °F 59.2 °F 44% 30.04 in 10.0 mi SSW 15.0 mph - N/A   Clear
7:55 PM 81.9 °F 81.8 °F 58.1 °F 44% 30.05 in 10.0 mi SSW 13.8 mph - N/A   Clear
8:15 PM 80.4 °F 80.9 °F 58.6 °F 47% 30.06 in 10.0 mi SSW 11.5 mph - N/A   Clear
8:35 PM 80.1 °F 80.5 °F 57.7 °F 46% 30.08 in 10.0 mi SSW 15.0 mph 21.9 mph N/A   Clear
8:55 PM 78.1 °F - 59.0 °F 52% 30.09 in 10.0 mi SSW 11.5 mph 19.6 mph N/A   Clear
9:15 PM 76.6 °F - 59.9 °F 56% 30.10 in 10.0 mi SSW 10.4 mph - N/A   Clear
9:35 PM 75.6 °F - 59.9 °F 58% 30.09 in 10.0 mi SW 10.4 mph - N/A   Clear
9:55 PM 74.5 °F - 60.4 °F 61% 30.11 in 10.0 mi SW 6.9 mph - N/A   Clear
10:15 PM 73.4 °F - 61.0 °F 65% 30.10 in 10.0 mi SW 8.1 mph - N/A   Clear
10:35 PM 72.5 °F - 61.2 °F 67% 30.10 in 10.0 mi SW 6.9 mph - N/A   Clear
10:55 PM 71.4 °F - 61.2 °F 70% 30.11 in 10.0 mi SW 3.5 mph - N/A   Clear
11:15 PM 69.8 °F - 61.3 °F 74% 30.12 in 10.0 mi North - - N/A   Clear
11:35 PM 68.0 °F - 61.7 °F 80% 30.13 in 10.0 mi North - - N/A   Clear
11:55 PM 65.1 °F - 60.8 °F 86% 30.13 in 10.0 mi North 3.5 mph - N/A   Clear